Flag for Czech Republic Weather past 2 weeks in Plzen, Czech Republic

Now
61 °F

Fog.


Feels Like: 61 °F
Forecast: 59 / 74 °F
Wind: 2 mph from East

Location: Kocelovice

Current Time: Jul 29, 2014 at 5:38:52 AM

Latest Report: Jul 29, 2014 at 5:00 AM


Visibility: 2 mi

Pressure: 29.80 "Hg

Humidity: 99%

Dew point: 60 °F

Location of PlzenLocation

Historic Weather in Plzen — Graph

°F

Plzen temperature yesterday

Maximum temperature yesterday: 77 °F (at 4:00 PM)
Minimum temperature yesterday: 61 °F (at 4:00 AM)
Average temperature yesterday: 67 °F

Past Weeks' High & Low Weather Summary

 TemperatureHumidityPressure
High88 °F (Jul 20, 5:00 PM)100% (Jul 25, 6:00 AM)30.17 "Hg (Jul 25, 6:00 AM)
Low52 °F (Jul 25, 5:00 AM)29% (Jul 19, 6:00 PM)29.70 "Hg (Jul 21, 4:00 PM)
Average69 °F70%29.94 "Hg
* Reported Jul 14 4:00 AM — Jul 29 4:00 AM, Plzen, Weather by CustomWeather, © 2014

Note: Actual official high and low records may vary slightly from our data, if they occured in-between our weather recording intervals... More about our weather records

Advertising

Plzen weather history for previous 24 hours

 ConditionsComfort  
Time TempWeatherWind HumidityBarometerVisibility
4:00 AM
Jul 29
61 °FFog.1 mph98%29.80 "Hg2 mi
3:00 AM62 °FFog.2 mph98%29.80 "Hg4 mi
2:00 AM62 °FFog.2 mph98%29.79 "Hg3 mi
1:00 AM62 °FFog.2 mph97%29.79 "Hg3 mi
12:00 AM61 °FFog.5 mph98%29.81 "Hg3 mi
11:00 PM
Jul 28
64 °FMild.1 mph96%29.82 "Hg7 mi
10:00 PM63 °FFog.1 mph98%29.84 "Hg6 mi
9:00 PM64 °FOvercast.2 mph96%29.84 "Hg7 mi
8:00 PM64 °FOvercast.1 mph96%29.82 "Hg11 mi
7:00 PM65 °FLight rain. Overcast.No wind84%29.82 "Hg14 mi
6:00 PM65 °FThunderstorms. Overcast.2 mph88%29.83 "Hg9 mi
5:00 PM73 °FThundershowers. Overcast.7 mph65%29.80 "Hg9 mi
4:00 PM77 °FThunderstorms. Overcast.3 mph62%29.79 "Hg12 mi
3:00 PM77 °FThunderstorms. Overcast.3 mph61%29.80 "Hg12 mi
2:00 PM76 °FOvercast.N/A63%29.83 "Hg14 mi
1:00 PM73 °FOvercast.N/A71%29.85 "Hg14 mi
12:00 PM69 °FOvercast.N/A82%29.87 "Hg12 mi
11:00 AM68 °FSprinkles. Overcast.1 mph89%29.89 "Hg11 mi
10:00 AM67 °FOvercast.N/A83%29.90 "Hg11 mi
9:00 AM65 °FOvercast.No wind92%29.91 "Hg9 mi
8:00 AM64 °FOvercast.No wind93%29.92 "Hg7 mi
7:00 AM62 °FFog.N/A97%29.92 "Hg5 mi
6:00 AM61 °FFog.N/A97%29.92 "Hg5 mi
5:00 AM61 °FFog.2 mph97%29.92 "Hg6 mi
Weather by CustomWeather, © 2014

See weather overviewHow to use our weather pages